Location: Minneapolis
(45.0000°N, 93.0000°W)
Time: 07:05:22
(UTC-05:00)

ISS - Pass Details

Date: 10 March 2018
Orbit: 403 x 407 km, 51.6° (Epoch: 26 June)

Event Time Altitude Azimuth Distance (km) Brightness Sun altitude
Exits shadow 04:45:55 24° 343° (NNW) 896 -2.1 -19.7°
Maximum altitude 04:46:21 25° 357° (N) 877 -2.1 -19.7°
Drops below altitude 10° 04:49:10 10° 55° (NE) 1,477 0.0 -19.2°
Sets 04:51:29 0° 69° (ENE) 2,336 1.7 -18.8°
